| time (UTC) | temp F | wind direction | speed MPH | gust MPH | rain 1hr in | rain 24hr in | rain mn in | humidity % | barometer mb |
| 20260903130956 | 47 | 230 | 0.0 | 0.0 | 0.00 | 0.00 | 0.00 | 95 | 1018.5 |
| 20260903130452 | 47 | 230 | 0.0 | 0.0 | 0.00 | 0.00 | 0.00 | 95 | 1018.6 |
| 20260903125950 | 47 | 230 | 0.0 | 0.0 | 0.00 | 0.00 | 0.00 | 95 | 1018.5 |
| 20260903125444 | 47 | 230 | 0.0 | 0.0 | 0.00 | 0.00 | 0.00 | 95 | 1018.3 |
| 20260903124939 | 47 | 231 | 0.0 | 0.0 | 0.00 | 0.00 | 0.00 | 95 | 1018.4 |
| 20260903124434 | 47 | 224 | 0.0 | 0.0 | 0.00 | 0.00 | 0.00 | 95 | 1018.5 |
| 20260903123933 | 47 | 236 | 0.0 | 0.0 | 0.00 | 0.00 | 0.00 | 95 | 1018.5 |
| 20260903123428 | 47 | 236 | 0.0 | 0.0 | 0.00 | 0.00 | 0.00 | 95 | 1018.4 |
| 20260903122926 | 47 | 239 | 0.0 | 0.0 | 0.00 | 0.00 | 0.00 | 95 | 1018.3 |
| 20260903122421 | 47 | 217 | 0.0 | 0.0 | 0.00 | 0.00 | 0.00 | 95 | 1018.4 |
| 20260903121920 | 47 | 246 | 0.0 | 0.0 | 0.00 | 0.00 | 0.00 | 95 | 1018.3 |
| 20260903121415 | 47 | 248 | 0.0 | 0.0 | 0.00 | 0.00 | 0.00 | 95 | 1018.4 |
| 20260903120912 | 47 | 241 | 0.0 | 0.0 | 0.00 | 0.00 | 0.00 | 95 | 1018.1 |
| 20260903120410 | 47 | 237 | 0.0 | 0.0 | 0.00 | 0.00 | 0.00 | 95 | 1018.1 |
| 20260903115909 | 47 | 226 | 0.0 | 0.0 | 0.00 | 0.00 | 0.00 | 95 | 1018.1 |
| 20260903115409 | 47 | 207 | 0.0 | 0.0 | 0.00 | 0.00 | 0.00 | 95 | 1018.3 |
| 20260903114903 | 47 | 216 | 0.0 | 0.0 | 0.00 | 0.00 | 0.00 | 95 | 1018.3 |
| 20260903114359 | 47 | 209 | 0.0 | 0.0 | 0.00 | 0.00 | 0.00 | 95 | 1018.1 |
| 20260903113855 | 47 | 219 | 0.0 | 0.0 | 0.00 | 0.00 | 0.00 | 95 | 1018.1 |
| 20260903113350 | 47 | 235 | 0.0 | 0.0 | 0.00 | 0.00 | 0.00 | 95 | 1018.0 |
| 20260903112846 | 47 | 218 | 0.0 | 0.0 | 0.00 | 0.00 | 0.00 | 95 | 1018.0 |
| 20260903112342 | 47 | 239 | 0.0 | 0.0 | 0.00 | 0.00 | 0.00 | 95 | 1018.0 |
| 20260903111840 | 47 | 241 | 0.0 | 0.0 | 0.00 | 0.00 | 0.00 | 95 | 1018.3 |
| 20260903111335 | 47 | 241 | 0.0 | 0.0 | 0.00 | 0.00 | 0.00 | 95 | 1018.0 |
| 20260903110831 | 47 | 240 | 0.0 | 0.0 | 0.00 | 0.00 | 0.00 | 95 | 1017.8 |
| 20260903110327 | 47 | 248 | 0.0 | 0.0 | 0.00 | 0.00 | 0.00 | 95 | 1017.9 |
| 20260903105826 | 47 | 258 | 0.0 | 0.0 | 0.00 | 0.00 | 0.00 | 95 | 1018.0 |
| 20260903105326 | 47 | 284 | 0.0 | 0.0 | 0.00 | 0.00 | 0.00 | 95 | 1018.0 |
| 20260903104821 | 47 | 262 | 0.0 | 0.0 | 0.00 | 0.00 | 0.00 | 95 | 1017.9 |
| 20260903104316 | 47 | 258 | 0.0 | 0.0 | 0.00 | 0.00 | 0.00 | 95 | 1017.9 |
| 20260903103813 | 47 | 254 | 0.0 | 0.0 | 0.00 | 0.00 | 0.00 | 95 | 1018.0 |
| 20260903103308 | 47 | 254 | 0.0 | 0.0 | 0.00 | 0.00 | 0.00 | 95 | 1018.3 |
| 20260903102804 | 46 | 18 | 0.0 | 0.0 | 0.00 | 0.00 | 0.00 | 95 | 1017.9 |
| 20260903102258 | 46 | 252 | 0.0 | 0.0 | 0.00 | 0.00 | 0.00 | 95 | 1017.9 |
| 20260903101756 | 46 | 252 | 0.0 | 0.0 | 0.00 | 0.00 | 0.00 | 95 | 1017.9 |
| 20260903101252 | 46 | 249 | 0.0 | 0.0 | 0.00 | 0.00 | 0.00 | 95 | 1018.0 |
| 20260903100748 | 46 | 247 | 0.0 | 0.0 | 0.00 | 0.00 | 0.00 | 95 | 1017.8 |
| 20260903100242 | 46 | 272 | 0.0 | 0.0 | 0.00 | 0.00 | 0.00 | 95 | 1018.1 |
| 20260903095739 | 46 | 256 | 0.0 | 0.0 | 0.00 | 0.00 | 0.00 | 95 | 1018.0 |
| 20260903095234 | 46 | 241 | 0.0 | 0.0 | 0.00 | 0.00 | 0.00 | 95 | 1018.3 |
| 20260903094728 | 47 | 264 | 0.0 | 0.0 | 0.00 | 0.00 | 0.00 | 95 | 1018.0 |
| 20260903094218 | 47 | 283 | 0.0 | 0.0 | 0.00 | 0.00 | 0.00 | 95 | 1018.0 |
| 20260903093714 | 46 | 274 | 0.0 | 0.0 | 0.00 | 0.00 | 0.00 | 95 | 1018.0 |
| 20260903093209 | 46 | 266 | 0.0 | 0.0 | 0.00 | 0.00 | 0.00 | 95 | 1017.9 |
| 20260903092708 | 46 | 262 | 0.0 | 0.0 | 0.00 | 0.00 | 0.00 | 95 | 1017.9 |
| 20260903092203 | 46 | 286 | 0.0 | 0.0 | 0.00 | 0.00 | 0.00 | 95 | 1017.9 |
| 20260903091702 | 46 | 311 | 2.0 | 2.0 | 0.00 | 0.00 | 0.00 | 95 | 1018.0 |
| 20260903091156 | 46 | 286 | 0.0 | 0.0 | 0.00 | 0.00 | 0.00 | 95 | 1017.8 |
| 20260903090652 | 46 | 239 | 0.0 | 0.0 | 0.00 | 0.00 | 0.00 | 95 | 1017.8 |
| 20260903090150 | 46 | 290 | 1.0 | 1.0 | 0.00 | 0.00 | 0.00 | 95 | 1017.6 |
| 20260903085649 | 46 | 324 | 1.0 | 1.0 | 0.00 | 0.00 | 0.00 | 95 | 1017.8 |
| 20260903085145 | 46 | 340 | 1.0 | 2.0 | 0.00 | 0.00 | 0.00 | 95 | 1017.8 |
| 20260903084643 | 46 | 322 | 1.0 | 1.0 | 0.00 | 0.00 | 0.00 | 95 | 1017.5 |
| 20260903084138 | 46 | 265 | 0.0 | 0.0 | 0.00 | 0.00 | 0.00 | 95 | 1017.6 |
| 20260903083634 | 46 | 251 | 0.0 | 0.0 | 0.00 | 0.00 | 0.00 | 95 | 1017.5 |
| 20260903083133 | 46 | 250 | 0.0 | 0.0 | 0.00 | 0.00 | 0.00 | 95 | 1017.8 |
| 20260903082628 | 46 | 226 | 0.0 | 0.0 | 0.00 | 0.00 | 0.00 | 95 | 1017.7 |
| 20260903082124 | 46 | 235 | 0.0 | 0.0 | 0.00 | 0.00 | 0.00 | 95 | 1017.7 |
| 20260903081618 | 45 | 227 | 0.0 | 0.0 | 0.00 | 0.00 | 0.00 | 95 | 1017.7 |
| 20260903081114 | 45 | 237 | 0.0 | 0.0 | 0.00 | 0.00 | 0.00 | 95 | 1017.9 |
| 20260903080610 | 45 | 224 | 0.0 | 0.0 | 0.00 | 0.00 | 0.00 | 95 | 1017.7 |
| 20260903080108 | 45 | 257 | 0.0 | 0.0 | 0.00 | 0.00 | 0.00 | 95 | 1017.9 |
| 20260903075601 | 45 | 251 | 0.0 | 0.0 | 0.00 | 0.00 | 0.00 | 95 | 1017.6 |
| 20260903075056 | 46 | 296 | 1.0 | 1.0 | 0.00 | 0.00 | 0.00 | 95 | 1017.6 |
| 20260903074555 | 46 | 279 | 0.0 | 0.0 | 0.00 | 0.00 | 0.00 | 95 | 1017.6 |
| 20260903074050 | 46 | 215 | 0.0 | 0.0 | 0.00 | 0.00 | 0.00 | 95 | 1017.7 |
| 20260903073546 | 45 | 249 | 0.0 | 0.0 | 0.00 | 0.00 | 0.00 | 95 | 1017.6 |
| 20260903073042 | 46 | 265 | 0.0 | 0.0 | 0.00 | 0.00 | 0.00 | 95 | 1017.6 |
| 20260903072537 | 45 | 224 | 0.0 | 0.0 | 0.00 | 0.00 | 0.00 | 94 | 1017.6 |
| 20260903072033 | 45 | 230 | 0.0 | 0.0 | 0.00 | 0.00 | 0.00 | 95 | 1017.5 |
| 20260903071530 | 46 | 230 | 0.0 | 0.0 | 0.00 | 0.00 | 0.00 | 95 | 1017.6 |
| 20260903071025 | 45 | 225 | 0.0 | 0.0 | 0.00 | 0.00 | 0.00 | 95 | 1017.6 |
| 20260903070524 | 45 | 253 | 0.0 | 0.0 | 0.00 | 0.00 | 0.00 | 94 | 1017.4 |
| 20260903070020 | 44 | 245 | 0.0 | 0.0 | 0.00 | 0.00 | 0.00 | 95 | 1017.6 |
| 20260903065514 | 44 | 255 | 0.0 | 0.0 | 0.00 | 0.00 | 0.00 | 94 | 1017.4 |
| 20260903065014 | 44 | 258 | 0.0 | 0.0 | 0.00 | 0.00 | 0.00 | 94 | 1017.7 |
| 20260903064513 | 45 | 245 | 0.0 | 0.0 | 0.00 | 0.00 | 0.00 | 94 | 1017.4 |
| 20260903064009 | 45 | 231 | 0.0 | 0.0 | 0.00 | 0.00 | 0.00 | 94 | 1017.6 |
| 20260903063504 | 45 | 214 | 0.0 | 0.0 | 0.00 | 0.00 | 0.00 | 94 | 1017.5 |
| 20260903062959 | 45 | 233 | 0.0 | 0.0 | 0.00 | 0.00 | 0.00 | 94 | 1017.3 |
| 20260903062454 | 45 | 234 | 0.0 | 0.0 | 0.00 | 0.00 | 0.00 | 94 | 1017.6 |
| 20260903061949 | 46 | 214 | 0.0 | 0.0 | 0.00 | 0.00 | 0.00 | 94 | 1017.3 |
| 20260903061444 | 46 | 233 | 0.0 | 1.0 | 0.00 | 0.00 | 0.00 | 94 | 1017.2 |
| 20260903060940 | 46 | 250 | 0.0 | 0.0 | 0.00 | 0.00 | 0.00 | 94 | 1017.4 |
| 20260903060434 | 46 | 251 | 0.0 | 0.0 | 0.00 | 0.00 | 0.00 | 94 | 1017.6 |
| 20260903055933 | 46 | 233 | 0.0 | 0.0 | 0.00 | 0.26 | 0.26 | 94 | 1017.4 |
| 20260903055431 | 46 | 233 | 0.0 | 0.0 | 0.00 | 0.26 | 0.26 | 94 | 1017.2 |
| 20260903054930 | 47 | 231 | 0.0 | 0.0 | 0.00 | 0.26 | 0.26 | 94 | 1017.7 |
| 20260903054425 | 47 | 223 | 0.0 | 0.0 | 0.00 | 0.26 | 0.26 | 94 | 1017.5 |
| 20260903053922 | 46 | 212 | 0.0 | 0.0 | 0.00 | 0.26 | 0.26 | 94 | 1017.4 |
| 20260903053421 | 46 | 219 | 0.0 | 0.0 | 0.00 | 0.26 | 0.26 | 94 | 1017.4 |
| 20260903052918 | 47 | 290 | 2.0 | 2.0 | 0.00 | 0.26 | 0.26 | 94 | 1017.2 |
| 20260903052414 | 47 | 217 | 0.0 | 1.0 | 0.00 | 0.26 | 0.26 | 94 | 1017.8 |
| 20260903051909 | 47 | 201 | 1.0 | 2.0 | 0.00 | 0.26 | 0.26 | 94 | 1017.7 |
| 20260903051405 | 47 | 175 | 2.0 | 2.0 | 0.00 | 0.26 | 0.26 | 94 | 1017.4 |
| 20260903050900 | 48 | 271 | 0.0 | 0.0 | 0.00 | 0.26 | 0.26 | 94 | 1017.3 |
| 20260903050358 | 48 | 241 | 0.0 | 0.0 | 0.00 | 0.26 | 0.26 | 94 | 1017.3 |
| 20260903045853 | 48 | 200 | 1.0 | 1.0 | 0.00 | 0.26 | 0.26 | 94 | 1017.4 |
| 20260903045349 | 47 | 186 | 1.0 | 1.0 | 0.00 | 0.26 | 0.26 | 94 | 1017.5 |
| 20260903044845 | 47 | 145 | 0.0 | 0.0 | 0.00 | 0.26 | 0.26 | 93 | 1017.4 |
| 20260903044340 | 47 | 276 | 0.0 | 0.0 | 0.00 | 0.26 | 0.26 | 93 | 1017.3 |
| 20260903043836 | 47 | 254 | 0.0 | 0.0 | 0.00 | 0.26 | 0.26 | 93 | 1017.5 |
| 20260903043331 | 48 | 234 | 0.0 | 0.0 | 0.00 | 0.26 | 0.26 | 93 | 1017.5 |
| 20260903042830 | 49 | 224 | 0.0 | 0.0 | 0.00 | 0.26 | 0.26 | 93 | 1017.5 |
| 20260903042325 | 48 | 228 | 0.0 | 0.0 | 0.00 | 0.26 | 0.26 | 93 | 1017.8 |
| 20260903041821 | 48 | 239 | 0.0 | 0.0 | 0.00 | 0.26 | 0.26 | 93 | 1017.7 |
| 20260903041318 | 49 | 256 | 1.0 | 1.0 | 0.00 | 0.26 | 0.26 | 93 | 1017.4 |
| 20260903040813 | 49 | 245 | 0.0 | 0.0 | 0.00 | 0.26 | 0.26 | 93 | 1017.5 |
| 20260903040312 | 49 | 229 | 0.0 | 0.0 | 0.00 | 0.26 | 0.26 | 93 | 1017.6 |
| 20260903035808 | 49 | 226 | 0.0 | 0.0 | 0.00 | 0.26 | 0.26 | 93 | 1017.6 |
| 20260903035306 | 49 | 236 | 0.0 | 0.0 | 0.00 | 0.26 | 0.26 | 92 | 1017.4 |
| 20260903034758 | 49 | 240 | 0.0 | 0.0 | 0.00 | 0.26 | 0.26 | 92 | 1017.6 |
| 20260903034254 | 49 | 246 | 0.0 | 0.0 | 0.00 | 0.26 | 0.26 | 92 | 1017.4 |
| 20260903033749 | 49 | 246 | 0.0 | 0.0 | 0.00 | 0.26 | 0.26 | 92 | 1017.6 |
| 20260903033244 | 49 | 247 | 0.0 | 0.0 | 0.00 | 0.26 | 0.26 | 91 | 1017.6 |
| 20260903032744 | 50 | 233 | 0.0 | 0.0 | 0.00 | 0.26 | 0.26 | 92 | 1017.6 |
| 20260903032240 | 50 | 230 | 0.0 | 0.0 | 0.00 | 0.26 | 0.26 | 91 | 1017.6 |
| 20260903031736 | 50 | 239 | 0.0 | 0.0 | 0.00 | 0.26 | 0.26 | 91 | 1017.4 |
| 20260903031235 | 51 | 235 | 0.0 | 0.0 | 0.00 | 0.26 | 0.26 | 90 | 1017.4 |
| 20260903030731 | 51 | 251 | 0.0 | 0.0 | 0.00 | 0.26 | 0.26 | 90 | 1017.3 |
| 20260903030227 | 52 | 254 | 0.0 | 0.0 | 0.00 | 0.26 | 0.26 | 89 | 1017.4 |
| 20260903025722 | 52 | 260 | 0.0 | 0.0 | 0.00 | 0.26 | 0.26 | 89 | 1017.0 |
| 20260903025217 | 53 | 260 | 0.0 | 0.0 | 0.00 | 0.26 | 0.26 | 88 | 1017.3 |
| 20260903024717 | 54 | 268 | 0.0 | 0.0 | 0.00 | 0.26 | 0.26 | 88 | 1017.0 |
| 20260903024216 | 54 | 175 | 0.0 | 0.0 | 0.00 | 0.26 | 0.26 | 87 | 1017.3 |
| 20260903023712 | 54 | 256 | 0.0 | 0.0 | 0.00 | 0.26 | 0.26 | 86 | 1017.2 |
| 20260903023208 | 54 | 276 | 0.0 | 0.0 | 0.00 | 0.26 | 0.26 | 85 | 1017.3 |
| 20260903022707 | 55 | 243 | 0.0 | 0.0 | 0.00 | 0.26 | 0.26 | 84 | 1017.0 |
| 20260903022206 | 55 | 242 | 0.0 | 0.0 | 0.00 | 0.26 | 0.26 | 84 | 1017.0 |
| 20260903021701 | 55 | 287 | 1.0 | 1.0 | 0.00 | 0.26 | 0.26 | 83 | 1017.3 |
| 20260903021156 | 55 | 306 | 1.0 | 2.0 | 0.00 | 0.26 | 0.26 | 83 | 1016.9 |
| 20260903020651 | 56 | 303 | 1.0 | 1.0 | 0.00 | 0.26 | 0.26 | 82 | 1017.3 |
| 20260903020150 | 56 | 269 | 0.0 | 0.0 | 0.00 | 0.26 | 0.26 | 81 | 1017.3 |
| 20260903015646 | 56 | 253 | 0.0 | 0.0 | 0.00 | 0.26 | 0.26 | 81 | 1017.3 |
| 20260903015142 | 57 | 278 | 0.0 | 0.0 | 0.00 | 0.26 | 0.26 | 80 | 1017.4 |
| 20260903014636 | 57 | 290 | 0.0 | 0.0 | 0.00 | 0.26 | 0.26 | 79 | 1017.3 |
| 20260903014136 | 58 | 289 | 0.0 | 1.0 | 0.00 | 0.26 | 0.26 | 78 | 1017.3 |
| 20260903013631 | 58 | 332 | 3.0 | 3.0 | 0.00 | 0.26 | 0.26 | 77 | 1017.3 |
| 20260903013131 | 59 | 332 | 3.0 | 3.0 | 0.00 | 0.26 | 0.26 | 75 | 1017.4 |
| 20260903012630 | 61 | 329 | 5.0 | 6.0 | 0.00 | 0.26 | 0.26 | 72 | 1017.3 |
| 20260903012129 | 61 | 324 | 3.0 | 3.0 | 0.00 | 0.26 | 0.26 | 71 | 1017.4 |
| 20260903011629 | 61 | 342 | 3.0 | 3.0 | 0.00 | 0.26 | 0.26 | 71 | 1017.6 |
| 20260903011129 | 61 | 3 | 3.0 | 3.0 | 0.00 | 0.26 | 0.26 | 71 | 1017.5 |
| 20260903010624 | 61 | 332 | 4.0 | 6.0 | 0.00 | 0.26 | 0.26 | 71 | 1017.4 |
| 20260903010123 | 62 | 325 | 4.0 | 5.0 | 0.00 | 0.26 | 0.26 | 70 | 1017.4 |
| 20260903005618 | 62 | 346 | 4.0 | 6.0 | 0.00 | 0.26 | 0.26 | 70 | 1017.6 |
| 20260903005114 | 61 | 311 | 2.0 | 2.0 | 0.00 | 0.26 | 0.26 | 70 | 1017.6 |
| 20260903004613 | 62 | 286 | 2.0 | 3.0 | 0.00 | 0.26 | 0.26 | 69 | 1017.6 |
| 20260903004108 | 61 | 296 | 1.0 | 1.0 | 0.00 | 0.26 | 0.26 | 73 | 1017.8 |
| 20260903003604 | 61 | 327 | 1.0 | 2.0 | 0.00 | 0.26 | 0.26 | 71 | 1017.7 |
| 20260903003059 | 62 | 326 | 2.0 | 2.0 | 0.00 | 0.26 | 0.26 | 70 | 1017.8 |
| 20260903002554 | 62 | 292 | 1.0 | 2.0 | 0.00 | 0.26 | 0.26 | 68 | 1018.0 |
| 20260903002048 | 62 | 285 | 1.0 | 1.0 | 0.00 | 0.26 | 0.26 | 68 | 1018.1 |
| 20260903001543 | 64 | 343 | 4.0 | 5.0 | 0.00 | 0.26 | 0.26 | 65 | 1017.9 |
| 20260903001043 | 64 | 207 | 0.0 | 0.0 | 0.00 | 0.26 | 0.26 | 62 | 1017.9 |
| 20260903000538 | 64 | 283 | 1.0 | 1.0 | 0.00 | 0.26 | 0.26 | 63 | 1018.0 |
| 20260903000032 | 64 | 21 | 1.0 | 2.0 | 0.00 | 0.26 | 0.26 | 64 | 1018.3 |
| 20260902235531 | 65 | 280 | 1.0 | 1.0 | 0.00 | 0.26 | 0.26 | 65 | 1018.0 |
| 20260902235026 | 64 | 204 | 1.0 | 1.0 | 0.00 | 0.26 | 0.26 | 64 | 1018.1 |
| 20260902234521 | 64 | 206 | 1.0 | 1.0 | 0.00 | 0.26 | 0.26 | 63 | 1018.1 |
| 20260902234019 | 63 | 245 | 0.0 | 0.0 | 0.00 | 0.26 | 0.26 | 67 | 1018.3 |
| 20260902233514 | 62 | 222 | 2.0 | 2.0 | 0.00 | 0.26 | 0.26 | 67 | 1018.6 |
| 20260902233008 | 62 | 250 | 0.0 | 0.0 | 0.00 | 0.26 | 0.26 | 70 | 1018.5 |
| 20260902232502 | 61 | 250 | 0.0 | 0.0 | 0.00 | 0.26 | 0.26 | 69 | 1018.6 |
| 20260902231956 | 61 | 265 | 0.0 | 0.0 | 0.00 | 0.26 | 0.26 | 69 | 1018.5 |
| 20260902231451 | 61 | 225 | 1.0 | 1.0 | 0.00 | 0.26 | 0.26 | 70 | 1018.6 |
| 20260902230946 | 61 | 300 | 0.0 | 1.0 | 0.00 | 0.26 | 0.26 | 73 | 1018.6 |
| 20260902230445 | 60 | 183 | 0.0 | 0.0 | 0.00 | 0.26 | 0.26 | 73 | 1018.5 |
| 20260902225939 | 61 | 296 | 2.0 | 2.0 | 0.00 | 0.26 | 0.26 | 72 | 1018.5 |
| 20260902225435 | 61 | 273 | 1.0 | 1.0 | 0.00 | 0.26 | 0.26 | 73 | 1018.7 |
| 20260902224934 | 60 | 217 | 0.0 | 0.0 | 0.00 | 0.26 | 0.26 | 76 | 1018.8 |
| 20260902224433 | 60 | 228 | 0.0 | 0.0 | 0.00 | 0.26 | 0.26 | 76 | 1018.8 |
| 20260902223930 | 59 | 37 | 1.0 | 2.0 | 0.00 | 0.26 | 0.26 | 82 | 1019.0 |
| 20260902223425 | 57 | 225 | 0.0 | 0.0 | 0.00 | 0.26 | 0.26 | 84 | 1019.0 |
| 20260902222924 | 55 | 226 | 0.0 | 1.0 | 0.00 | 0.26 | 0.26 | 90 | 1019.4 |
| 20260902222422 | 55 | 276 | 0.0 | 0.0 | 0.00 | 0.26 | 0.26 | 91 | 1019.5 |
| 20260902221917 | 56 | 209 | 0.0 | 1.0 | 0.00 | 0.26 | 0.26 | 92 | 1019.7 |
| 20260902221416 | 56 | 228 | 0.0 | 0.0 | 0.00 | 0.26 | 0.26 | 93 | 1019.4 |
| 20260902220911 | 55 | 252 | 0.0 | 0.0 | 0.00 | 0.26 | 0.26 | 93 | 1019.7 |
| 20260902220406 | 55 | 339 | 2.0 | 2.0 | 0.00 | 0.26 | 0.26 | 93 | 1019.7 |
| 20260902215901 | 56 | 264 | 0.0 | 0.0 | 0.00 | 0.26 | 0.26 | 93 | 1019.7 |
| 20260902215356 | 55 | 260 | 0.0 | 0.0 | 0.00 | 0.26 | 0.26 | 93 | 1019.7 |
| 20260902214852 | 55 | 254 | 0.0 | 0.0 | 0.00 | 0.26 | 0.26 | 93 | 1019.8 |
| 20260902214351 | 55 | 291 | 0.0 | 0.0 | 0.00 | 0.26 | 0.26 | 93 | 1019.7 |
| 20260902213846 | 54 | 247 | 0.0 | 0.0 | 0.00 | 0.26 | 0.26 | 93 | 1019.5 |
| 20260902213342 | 54 | 250 | 1.0 | 2.0 | 0.00 | 0.26 | 0.26 | 92 | 1019.7 |
| 20260902212840 | 53 | 262 | 0.0 | 1.0 | 0.00 | 0.26 | 0.26 | 93 | 1019.7 |
| 20260902212337 | 54 | 251 | 2.0 | 3.0 | 0.00 | 0.26 | 0.26 | 93 | 1019.4 |
| 20260902211833 | 54 | 252 | 1.0 | 2.0 | 0.00 | 0.26 | 0.26 | 93 | 1019.7 |
| 20260902211329 | 54 | 233 | 4.0 | 6.0 | 0.00 | 0.26 | 0.26 | 93 | 1019.1 |
| 20260902210824 | 54 | 238 | 4.0 | 6.0 | 0.00 | 0.26 | 0.26 | 93 | 1019.1 |
| 20260902210323 | 53 | 250 | 4.0 | 5.0 | 0.00 | 0.26 | 0.26 | 93 | 1019.0 |
| 20260902205821 | 53 | 207 | 1.0 | 2.0 | 0.00 | 0.26 | 0.26 | 93 | 1019.0 |
| 20260902205316 | 53 | 255 | 0.0 | 0.0 | 0.00 | 0.26 | 0.26 | 93 | 1018.5 |
| 20260902204812 | 53 | 149 | 4.0 | 5.0 | 0.00 | 0.26 | 0.26 | 93 | 1018.8 |
| 20260902204307 | 53 | 317 | 1.0 | 2.0 | 0.07 | 0.26 | 0.26 | 93 | 1018.3 |
| 20260902203802 | 53 | 347 | 4.0 | 5.0 | 0.07 | 0.26 | 0.26 | 93 | 1018.6 |
| 20260902203257 | 53 | 349 | 7.0 | 10.0 | 0.12 | 0.26 | 0.26 | 92 | 1018.9 |
| 20260902202751 | 53 | 326 | 7.0 | 8.0 | 0.12 | 0.25 | 0.25 | 92 | 1019.6 |
| 20260902202248 | 53 | 288 | 0.0 | 1.0 | 0.12 | 0.24 | 0.24 | 92 | 1020.4 |
| 20260902201744 | 53 | 33 | 2.0 | 2.0 | 0.19 | 0.23 | 0.23 | 92 | 1020.8 |
| 20260902201244 | 53 | 273 | 1.0 | 1.0 | 0.19 | 0.22 | 0.22 | 91 | 1021.1 |
| 20260902200739 | 53 | 264 | 0.0 | 1.0 | 0.17 | 0.20 | 0.20 | 91 | 1021.1 |
| 20260902200234 | 53 | 312 | 2.0 | 2.0 | 0.19 | 0.19 | 0.19 | 91 | 1020.8 |
| 20260902195730 | 53 | 165 | 5.0 | 6.0 | 0.17 | 0.18 | 0.18 | 90 | 1021.2 |
| 20260902195229 | 54 | 229 | 4.0 | 6.0 | 0.12 | 0.16 | 0.16 | 90 | 1021.1 |
| 20260902194729 | 54 | 164 | 4.0 | 5.0 | 0.19 | 0.15 | 0.15 | 89 | 1021.0 |
| 20260902194224 | 54 | 196 | 8.0 | 10.0 | 0.17 | 0.14 | 0.14 | 88 | 1021.0 |
| 20260902193719 | 55 | 210 | 9.0 | 10.0 | 0.31 | 0.12 | 0.12 | 87 | 1020.9 |
| 20260902193215 | 55 | 132 | 5.0 | 7.0 | 0.42 | 0.11 | 0.11 | 87 | 1020.6 |
| 20260902192712 | 55 | 144 | 10.0 | 10.0 | 0.35 | 0.07 | 0.07 | 85 | 1020.1 |
| 20260902192207 | 56 | 159 | 5.0 | 6.0 | 0.24 | 0.04 | 0.04 | 82 | 1020.1 |
| 20260902191707 | 57 | 163 | 12.0 | 16.0 | 0.12 | 0.02 | 0.02 | 78 | 1019.8 |
| 20260902191201 | 62 | 186 | 14.0 | 17.0 | 0.00 | 0.00 | 0.00 | 66 | 1019.0 |
| 20260902190657 | 62 | 144 | 6.0 | 8.0 | 0.00 | 0.00 | 0.00 | 61 | 1018.0 |
| 20260902190152 | 62 | 205 | 5.0 | 7.0 | 0.00 | 0.00 | 0.00 | 58 | 1017.0 |
| 20260902185647 | 62 | 261 | 3.0 | 5.0 | 0.00 | 0.00 | 0.00 | 62 | 1017.0 |
| 20260902185144 | 62 | 233 | 2.0 | 3.0 | 0.00 | 0.00 | 0.00 | 62 | 1017.3 |
| 20260902184644 | 65 | 274 | 11.0 | 14.0 | 0.00 | 0.00 | 0.00 | 59 | 1017.3 |
| 20260902184139 | 64 | 284 | 4.0 | 6.0 | 0.00 | 0.00 | 0.00 | 66 | 1017.3 |
| 20260902183635 | 64 | 257 | 1.0 | 1.0 | 0.00 | 0.00 | 0.00 | 68 | 1017.5 |
| 20260902183132 | 64 | 215 | 5.0 | 6.0 | 0.00 | 0.00 | 0.00 | 69 | 1017.5 |
| 20260902182627 | 65 | 192 | 7.0 | 8.0 | 0.00 | 0.00 | 0.00 | 68 | 1017.3 |
| 20260902182123 | 65 | 198 | 7.0 | 9.0 | 0.00 | 0.00 | 0.00 | 68 | 1017.3 |
| 20260902181620 | 66 | 173 | 6.0 | 8.0 | 0.00 | 0.00 | 0.00 | 66 | 1016.9 |
| 20260902181118 | 66 | 185 | 5.0 | 6.0 | 0.00 | 0.00 | 0.00 | 66 | 1016.9 |
| 20260902180613 | 66 | 197 | 5.0 | 6.0 | 0.00 | 0.00 | 0.00 | 66 | 1016.9 |
| 20260902180109 | 66 | 212 | 4.0 | 5.0 | 0.00 | 0.00 | 0.00 | 66 | 1016.8 |
| 20260902175608 | 66 | 175 | 4.0 | 6.0 | 0.00 | 0.00 | 0.00 | 65 | 1016.8 |
| 20260902175104 | 66 | 180 | 5.0 | 6.0 | 0.00 | 0.00 | 0.00 | 64 | 1016.9 |
| 20260902174601 | 67 | 216 | 4.0 | 5.0 | 0.00 | 0.00 | 0.00 | 63 | 1016.9 |
| 20260902174056 | 66 | 256 | 1.0 | 2.0 | 0.00 | 0.00 | 0.00 | 63 | 1016.6 |
| 20260902173555 | 67 | 223 | 3.0 | 3.0 | 0.00 | 0.00 | 0.00 | 64 | 1016.6 |
| 20260902173051 | 67 | 184 | 5.0 | 5.0 | 0.00 | 0.00 | 0.00 | 62 | 1016.4 |
| 20260902172545 | 67 | 170 | 4.0 | 5.0 | 0.00 | 0.00 | 0.00 | 62 | 1016.5 |
| 20260902172040 | 66 | 292 | 1.0 | 1.0 | 0.00 | 0.00 | 0.00 | 64 | 1016.0 |
| 20260902171536 | 67 | 264 | 3.0 | 3.0 | 0.00 | 0.00 | 0.00 | 63 | 1016.0 |
| 20260902171031 | 66 | 314 | 4.0 | 5.0 | 0.00 | 0.00 | 0.00 | 68 | 1016.0 |
| 20260902170526 | 66 | 272 | 1.0 | 1.0 | 0.00 | 0.00 | 0.00 | 67 | 1016.4 |
| 20260902170022 | 66 | 256 | 0.0 | 0.0 | 0.00 | 0.00 | 0.00 | 66 | 1016.4 |
| 20260902165521 | 66 | 252 | 0.0 | 0.0 | 0.00 | 0.00 | 0.00 | 66 | 1016.4 |
| 20260902165016 | 67 | 46 | 1.0 | 2.0 | 0.00 | 0.00 | 0.00 | 65 | 1016.5 |
| 20260902164511 | 66 | 258 | 0.0 | 1.0 | 0.00 | 0.00 | 0.00 | 68 | 1016.4 |
| 20260902164010 | 65 | 264 | 1.0 | 1.0 | 0.00 | 0.00 | 0.00 | 70 | 1016.4 |
| 20260902163506 | 64 | 241 | 1.0 | 2.0 | 0.00 | 0.00 | 0.00 | 71 | 1016.4 |
| 20260902163004 | 63 | 29 | 2.0 | 2.0 | 0.00 | 0.00 | 0.00 | 72 | 1016.3 |
| 20260902162458 | 62 | 336 | 3.0 | 5.0 | 0.00 | 0.00 | 0.00 | 79 | 1016.2 |
| 20260902161953 | 61 | 337 | 3.0 | 5.0 | 0.00 | 0.00 | 0.00 | 80 | 1016.2 |
| 20260902161448 | 62 | 348 | 4.0 | 5.0 | 0.00 | 0.00 | 0.00 | 80 | 1016.0 |
| 20260902160944 | 61 | 292 | 4.0 | 6.0 | 0.00 | 0.00 | 0.00 | 81 | 1016.2 |
| 20260902160439 | 61 | 0 | 4.0 | 6.0 | 0.00 | 0.00 | 0.00 | 81 | 1015.9 |
| 20260902155937 | 61 | 285 | 3.0 | 3.0 | 0.00 | 0.00 | 0.00 | 81 | 1015.9 |
| 20260902155433 | 61 | 325 | 3.0 | 5.0 | 0.00 | 0.00 | 0.00 | 82 | 1015.8 |
| 20260902154926 | 61 | 350 | 3.0 | 5.0 | 0.00 | 0.00 | 0.00 | 83 | 1015.8 |
| 20260902154422 | 60 | 356 | 3.0 | 5.0 | 0.00 | 0.00 | 0.00 | 84 | 1015.8 |
| 20260902153921 | 59 | 341 | 3.0 | 3.0 | 0.00 | 0.00 | 0.00 | 85 | 1015.7 |
| 20260902153420 | 59 | 330 | 3.0 | 3.0 | 0.00 | 0.00 | 0.00 | 85 | 1015.7 |
| 20260902152916 | 59 | 309 | 1.0 | 1.0 | 0.00 | 0.00 | 0.00 | 86 | 1015.9 |
| 20260902152412 | 58 | 326 | 2.0 | 2.0 | 0.00 | 0.00 | 0.00 | 87 | 1016.0 |
| 20260902151907 | 58 | 320 | 2.0 | 2.0 | 0.00 | 0.00 | 0.00 | 89 | 1016.2 |
| 20260902151403 | 57 | 338 | 1.0 | 1.0 | 0.00 | 0.00 | 0.00 | 91 | 1016.2 |
| 20260902150857 | 57 | 322 | 3.0 | 3.0 | 0.00 | 0.00 | 0.00 | 92 | 1015.8 |
| 20260902150354 | 56 | 320 | 5.0 | 6.0 | 0.00 | 0.00 | 0.00 | 93 | 1016.0 |
| 20260902145852 | 55 | 327 | 2.0 | 2.0 | 0.00 | 0.00 | 0.00 | 94 | 1015.8 |
| 20260902145348 | 55 | 303 | 2.0 | 2.0 | 0.00 | 0.00 | 0.00 | 94 | 1015.9 |
| 20260902144843 | 54 | 333 | 3.0 | 3.0 | 0.00 | 0.00 | 0.00 | 94 | 1015.8 |
| 20260902144339 | 54 | 323 | 2.0 | 3.0 | 0.00 | 0.00 | 0.00 | 95 | 1015.7 |
| 20260902143833 | 54 | 326 | 1.0 | 2.0 | 0.00 | 0.00 | 0.00 | 95 | 1015.9 |
| 20260902143328 | 54 | 312 | 1.0 | 2.0 | 0.00 | 0.00 | 0.00 | 95 | 1015.8 |
| 20260902142824 | 53 | 278 | 0.0 | 0.0 | 0.00 | 0.00 | 0.00 | 95 | 1015.7 |
| 20260902142320 | 53 | 324 | 0.0 | 1.0 | 0.00 | 0.00 | 0.00 | 95 | 1016.0 |
| 20260902141815 | 53 | 325 | 2.0 | 2.0 | 0.00 | 0.00 | 0.00 | 95 | 1016.0 |
| 20260902141311 | 53 | 287 | 1.0 | 2.0 | 0.00 | 0.00 | 0.00 | 95 | 1016.2 |
| 20260902140810 | 52 | 283 | 0.0 | 0.0 | 0.00 | 0.00 | 0.00 | 95 | 1016.2 |
| 20260902140305 | 52 | 261 | 0.0 | 0.0 | 0.00 | 0.00 | 0.00 | 94 | 1016.2 |
| 20260902135804 | 52 | 260 | 0.0 | 0.0 | 0.00 | 0.00 | 0.00 | 94 | 1016.0 |
| 20260902135300 | 51 | 266 | 0.0 | 0.0 | 0.00 | 0.00 | 0.00 | 94 | 1016.4 |
| 20260902134759 | 52 | 231 | 0.0 | 0.0 | 0.00 | 0.00 | 0.00 | 94 | 1016.2 |
| 20260902134255 | 51 | 263 | 0.0 | 0.0 | 0.00 | 0.00 | 0.00 | 94 | 1016.2 |
| 20260902133750 | 51 | 199 | 1.0 | 1.0 | 0.00 | 0.00 | 0.00 | 94 | 1016.4 |
| 20260902133249 | 50 | 314 | 1.0 | 1.0 | 0.00 | 0.00 | 0.00 | 94 | 1016.6 |
| 20260902132745 | 51 | 243 | 0.0 | 1.0 | 0.00 | 0.00 | 0.00 | 94 | 1016.4 |
| 20260902132241 | 51 | 269 | 0.0 | 0.0 | 0.00 | 0.00 | 0.00 | 94 | 1016.4 |
| 20260902131736 | 51 | 244 | 0.0 | 0.0 | 0.00 | 0.00 | 0.00 | 94 | 1016.2 |
| 20260902131232 | 52 | 245 | 0.0 | 0.0 | 0.00 | 0.00 | 0.00 | 94 | 1016.5 |